OH6GKW Weather Reports


time (UTC)temp
C
wind
direction
speed
KPH
gust
KPH
rain 1hr
cm
rain 24hr
cm
rain mn
cm
humidity
%
barometer
mb
20260506155343 7 227 12.9 0.0 0.00 0.00 0.00 59 1009.4
20260506154838 7 279 14.5 0.0 0.00 0.00 0.00 58 1009.4
20260506154334 7 228 12.9 0.0 0.00 0.00 0.00 58 1009.3
20260506153845 7 248 12.9 0.0 0.00 0.00 0.00 58 1009.3
20260506153344 7 231 12.9 0.0 0.00 0.00 0.00 57 1009.3
20260506152833 7 264 12.9 0.0 0.00 0.00 0.00 58 1009.3
20260506152341 7 255 14.5 0.0 0.00 0.00 0.00 58 1009.3
20260506151833 7 272 16.1 0.0 0.00 0.00 0.00 57 1009.3
20260506151357 7 228 14.5 0.0 0.00 0.00 0.00 56 1009.1
20260506150850 7 264 11.3 0.0 0.00 0.00 0.00 57 1009.1
20260506150349 7 230 11.3 0.0 0.00 0.00 0.00 57 1009.1
20260506145841 7 235 12.9 0.0 0.00 0.00 0.00 56 1009.0
20260506145338 7 244 14.5 0.0 0.00 0.00 0.00 58 1009.0
20260506144834 7 306 12.9 0.0 0.00 0.00 0.00 56 1009.0
20260506144329 7 275 12.9 0.0 0.00 0.00 0.00 56 1009.0
20260506143847 7 245 12.9 0.0 0.00 0.00 0.00 57 1009.0
20260506143338 7 226 16.1 0.0 0.00 0.00 0.00 57 1009.0
20260506142832 7 257 12.9 0.0 0.00 0.00 0.00 58 1009.0
20260506142345 7 265 12.9 0.0 0.00 0.00 0.00 57 1009.0
20260506141837 7 231 14.5 0.0 0.00 0.00 0.00 58 1009.0
20260506141330 7 298 14.5 0.0 0.00 0.00 0.00 57 1009.0
20260506140841 7 296 14.5 0.0 0.00 0.00 0.00 58 1009.0
20260506140340 7 289 12.9 0.0 0.00 0.00 0.00 58 1009.0
20260506135830 7 223 11.3 0.0 0.00 0.00 0.00 58 1008.9
20260506135353 7 228 9.7 0.0 0.00 0.00 0.00 57 1008.9
20260506134851 7 197 11.3 0.0 0.00 0.00 0.00 57 1008.9
20260506134347 7 237 12.9 0.0 0.00 0.00 0.00 57 1008.8
20260506133839 7 258 14.5 0.0 0.00 0.00 0.00 56 1008.8
20260506133334 7 227 14.5 0.0 0.00 0.00 0.00 56 1008.8
20260506132844 7 276 12.9 0.0 0.00 0.00 0.00 55 1008.7
20260506132336 7 276 11.3 0.0 0.00 0.00 0.00 56 1008.7
20260506131848 7 193 12.9 0.0 0.00 0.00 0.00 56 1008.7
20260506131345 7 285 11.3 0.0 0.00 0.00 0.00 56 1008.5
20260506130840 7 257 11.3 0.0 0.00 0.00 0.00 57 1008.5
20260506130339 7 211 12.9 0.0 0.00 0.00 0.00 58 1008.5
20260506125832 7 267 12.9 0.0 0.00 0.00 0.00 59 1008.5
20260506125353 7 268 11.3 0.0 0.00 0.00 0.00 59 1008.5
20260506124848 7 207 12.9 0.0 0.00 0.00 0.00 59 1008.5
20260506124341 7 221 12.9 0.0 0.00 0.00 0.00 60 1008.5
20260506123836 7 226 12.9 0.0 0.00 0.00 0.00 62 1008.5
20260506123331 6 220 11.3 0.0 0.00 0.00 0.00 62 1008.5
20260506122845 6 204 11.3 0.0 0.00 0.00 0.00 62 1008.4
20260506122338 6 226 12.9 0.0 0.00 0.00 0.00 63 1008.4
20260506121833 6 240 12.9 0.0 0.00 0.00 0.00 64 1008.4
20260506121358 6 219 11.3 0.0 0.00 0.00 0.00 65 1008.3
20260506120842 6 245 11.3 0.0 0.00 0.00 0.00 65 1008.3
20260506120355 6 240 12.9 0.0 0.00 0.00 0.00 64 1008.3
20260506115830 6 216 11.3 0.0 0.00 0.00 0.00 63 1008.1
20260506115354 6 282 11.3 0.0 0.00 0.00 0.00 65 1008.1
20260506114846 5 204 11.3 0.0 0.00 0.00 0.00 65 1008.1
20260506114339 5 281 9.7 0.0 0.00 0.00 0.00 65 1008.0
20260506113834 5 190 9.7 0.0 0.00 0.00 0.00 67 1008.0
20260506113349 5 228 9.7 0.0 0.00 0.00 0.00 67 1008.0
20260506112844 5 210 9.7 0.0 0.00 0.00 0.00 66 1007.9
20260506112337 5 228 11.3 0.0 0.00 0.00 0.00 67 1007.9
20260506111831 5 216 11.3 0.0 0.00 0.00 0.00 66 1007.9
20260506111327 5 272 11.3 0.0 0.00 0.00 0.00 67 1007.7
20260506110851 5 228 12.9 0.0 0.00 0.00 0.00 66 1007.7
20260506110348 5 248 11.3 0.0 0.00 0.00 0.00 68 1007.7
20260506105838 5 257 11.3 0.0 0.00 0.00 0.00 68 1007.5
20260506105331 5 261 12.9 0.0 0.00 0.00 0.00 69 1007.5
20260506104844 5 226 12.9 0.0 0.00 0.00 0.00 68 1007.5
20260506104337 5 244 12.9 0.0 0.00 0.00 0.00 69 1007.4
20260506103833 5 247 11.3 0.0 0.00 0.00 0.00 69 1007.4
20260506103348 5 189 11.3 0.0 0.00 0.00 0.00 68 1007.4
20260506102840 5 227 12.9 0.0 0.00 0.00 0.00 69 1007.2
20260506102333 5 193 12.9 0.0 0.00 0.00 0.00 69 1007.2
20260506101837 5 228 12.9 0.0 0.00 0.00 0.00 69 1007.2
20260506101345 4 228 12.9 0.0 0.00 0.00 0.00 68 1006.9
20260506100837 4 224 11.3 0.0 0.00 0.00 0.00 69 1006.9
20260506100332 4 219 11.3 0.0 0.00 0.00 0.00 69 1006.9
20260506095842 4 227 9.7 0.0 0.00 0.00 0.00 70 1006.8
20260506095335 4 228 9.7 0.0 0.00 0.00 0.00 69 1006.8
20260506094859 4 216 11.3 0.0 0.00 0.00 0.00 70 1006.8
20260506094352 4 217 11.3 0.0 0.00 0.00 0.00 71 1006.6
20260506093844 4 261 11.3 0.0 0.00 0.00 0.00 70 1006.6
20260506093339 5 247 9.7 0.0 0.00 0.00 0.00 70 1006.6
20260506092836 5 228 8.0 0.0 0.00 0.00 0.00 71 1006.4
20260506092345 5 233 9.7 0.0 0.00 0.00 0.00 71 1006.4
20260506091837 5 243 11.3 0.0 0.00 0.00 0.00 71 1006.4
20260506091330 5 267 11.3 0.0 0.00 0.00 0.00 70 1006.2
20260506090843 5 282 12.9 0.0 0.00 0.00 0.00 71 1006.2
20260506090338 5 202 11.3 0.0 0.00 0.00 0.00 70 1006.2
20260506085830 5 182 11.3 0.0 0.00 0.00 0.00 69 1006.0
20260506085355 5 238 14.5 0.0 0.00 0.00 0.00 69 1006.0
20260506084846 5 207 14.5 0.0 0.00 0.00 0.00 68 1006.0
20260506084339 5 233 12.9 0.0 0.00 0.00 0.00 67 1005.9
20260506083836 5 258 12.9 0.0 0.00 0.00 0.00 66 1005.9
20260506083346 5 292 12.9 0.0 0.00 0.00 0.00 65 1005.9
20260506082842 5 243 11.3 0.0 0.00 0.00 0.00 66 1005.8
20260506082336 6 288 11.3 0.0 0.00 0.00 0.00 64 1005.8
20260506081828 5 292 12.9 0.0 0.00 0.00 0.00 64 1005.8
20260506081344 5 238 11.3 0.0 0.00 0.00 0.00 64 1005.6
20260506080836 5 235 11.3 0.0 0.00 0.00 0.00 65 1005.6
20260506080331 5 241 12.9 0.0 0.00 0.00 0.00 65 1005.6
20260506073345 5 282 11.3 0.0 0.00 0.00 0.00 67 1005.2
20260506072836 5 234 12.9 0.0 0.00 0.00 0.00 68 1005.1
20260506072400 5 235 11.3 0.0 0.00 0.00 0.00 67 1005.1
20260506071839 5 230 9.7 0.0 0.00 0.00 0.00 67 1005.1
20260506071335 5 216 11.3 0.0 0.00 0.00 0.00 67 1004.9
20260506070841 4 207 14.5 0.0 0.00 0.00 0.00 67 1004.9
20260506070334 4 227 12.9 0.0 0.00 0.00 0.00 68 1004.9
20260506062352 4 255 11.3 0.0 0.00 0.00 0.00 67 1004.3
20260506061848 4 272 11.3 0.0 0.00 0.00 0.00 67 1004.3
20260506061341 4 262 11.3 0.0 0.00 0.00 0.00 67 1004.1
20260506060832 4 289 11.3 0.0 0.00 0.00 0.00 67 1004.1
20260506060346 4 272 9.7 0.0 0.00 0.00 0.00 67 1004.1
20260506051335 3 248 9.7 0.0 0.00 0.00 0.00 71 1003.4
20260506050843 3 241 9.7 0.0 0.00 0.00 0.00 72 1003.4
20260506050337 3 274 11.3 0.0 0.00 0.00 0.00 71 1003.4
20260506044848 3 275 9.7 0.0 0.00 0.00 0.00 71 1003.3
20260506044340 3 261 9.7 0.0 0.00 0.00 0.00 71 1003.2
20260506043833 3 259 9.7 0.0 0.00 0.00 0.00 71 1003.2
20260506043350 3 228 9.7 0.0 0.00 0.00 0.00 72 1003.2
20260506042840 3 243 9.7 0.0 0.00 0.00 0.00 71 1003.1
20260506042333 3 254 8.0 0.0 0.00 0.00 0.00 72 1003.1
20260506041842 3 275 8.0 0.0 0.00 0.00 0.00 73 1003.1
20260506041338 3 264 6.4 0.0 0.00 0.00 0.00 73 1003.0
20260506040831 3 258 4.8 0.0 0.00 0.00 0.00 73 1003.0
20260506040357 3 264 4.8 0.0 0.00 0.00 0.00 73 1003.0
20260506035847 3 274 4.8 0.0 0.00 0.00 0.00 73 1002.8
20260506035340 3 240 4.8 0.0 0.00 0.00 0.00 74 1002.8
20260506034832 2 250 4.8 0.0 0.00 0.00 0.00 74 1002.8
20260506034345 2 281 4.8 0.0 0.00 0.00 0.00 74 1002.8
20260506033837 2 241 1.6 0.0 0.00 0.00 0.00 74 1002.8
20260506033332 2 274 0.0 0.0 0.00 0.00 0.00 75 1002.8
20260506032850 2 235 3.2 0.0 0.00 0.00 0.00 75 1002.7
20260506032343 2 295 4.8 0.0 0.00 0.00 0.00 75 1002.7
20260506031835 2 267 3.2 0.0 0.00 0.00 0.00 76 1002.7
20260506031331 2 231 4.8 0.0 0.00 0.00 0.00 76 1002.6
20260506030844 2 262 3.2 0.0 0.00 0.00 0.00 76 1002.6
20260506030339 2 265 3.2 0.0 0.00 0.00 0.00 76 1002.6
20260506025830 2 250 3.2 0.0 0.00 0.00 0.00 76 1002.5
20260506025347 2 267 3.2 0.0 0.00 0.00 0.00 76 1002.5
20260506024839 2 282 4.8 0.0 0.00 0.00 0.00 76 1002.5
20260506024332 2 230 4.8 0.0 0.00 0.00 0.00 76 1002.4
20260506023852 2 264 3.2 0.0 0.00 0.00 0.00 75 1002.4
20260506023350 2 258 4.8 0.0 0.00 0.00 0.00 75 1002.4
20260506022841 2 228 6.4 0.0 0.00 0.00 0.00 75 1002.3
20260506022337 2 283 4.8 0.0 0.00 0.00 0.00 75 1002.3
20260506021829 2 245 3.2 0.0 0.00 0.00 0.00 75 1002.3
20260506021346 2 261 3.2 0.0 0.00 0.00 0.00 75 1002.2
20260506020837 2 262 3.2 0.0 0.00 0.00 0.00 75 1002.2
20260506020335 2 254 3.2 0.0 0.00 0.00 0.00 75 1002.2
20260506015845 2 241 4.8 0.0 0.00 0.00 0.00 74 1002.1
20260506015342 2 254 4.8 0.0 0.00 0.00 0.00 74 1002.1
20260506014830 2 264 4.8 0.0 0.00 0.00 0.00 73 1002.1
20260506014355 2 279 6.4 0.0 0.00 0.00 0.00 73 1001.9
20260506013847 2 261 4.8 0.0 0.00 0.00 0.00 73 1001.9
20260506013345 2 240 3.2 0.0 0.00 0.00 0.00 73 1001.9
20260506012840 2 245 3.2 0.0 0.00 0.00 0.00 73 1001.7
20260506012336 2 300 3.2 0.0 0.00 0.00 0.00 72 1001.7
20260506011829 2 293 3.2 0.0 0.00 0.00 0.00 72 1001.7
20260506011342 2 274 3.2 0.0 0.00 0.00 0.00 72 1001.7
20260506010834 2 289 4.8 0.0 0.00 0.00 0.00 71 1001.7
20260506010400 3 268 4.8 0.0 0.00 0.00 0.00 71 1001.7
20260506005835 3 274 4.8 0.0 0.00 0.00 0.00 71 1001.6
20260506005400 3 283 4.8 0.0 0.00 0.00 0.00 71 1001.6
20260506004833 2 243 4.8 0.0 0.00 0.00 0.00 71 1001.6
20260506004345 3 269 4.8 0.0 0.00 0.00 0.00 72 1001.5
20260506003838 3 257 4.8 0.0 0.00 0.00 0.00 71 1001.5
20260506003337 3 320 4.8 0.0 0.00 0.00 0.00 72 1001.5
20260506002846 3 261 4.8 0.0 0.00 0.00 0.00 71 1001.5
20260506002339 3 264 4.8 0.0 0.00 0.00 0.00 71 1001.5
20260506001831 3 296 4.8 0.0 0.00 0.00 0.00 70 1001.5
20260506001334 3 245 4.8 0.0 0.00 0.00 0.00 70 1001.2
20260506000854 3 282 3.2 0.0 0.00 0.00 0.00 70 1001.2
20260506000349 3 264 3.2 0.0 0.00 0.00 0.00 70 1001.2
20260505235839 3 281 4.8 0.0 0.00 0.00 0.00 69 1001.2
20260505235332 3 292 4.8 0.0 0.00 0.00 0.00 69 1001.2
20260505234847 3 252 4.8 0.0 0.00 0.00 0.00 69 1001.2
20260505234340 3 268 3.2 0.0 0.00 0.00 0.00 69 1001.2
20260505233833 3 252 3.2 0.0 0.00 0.00 0.00 69 1001.2
20260505233327 3 286 3.2 0.0 0.00 0.00 0.00 68 1001.2
20260505232843 3 262 3.2 0.0 0.00 0.00 0.00 67 1001.1
20260505232335 3 254 3.2 0.0 0.00 0.00 0.00 67 1001.1
20260505231831 3 251 1.6 0.0 0.00 0.00 0.00 67 1001.1
20260505231351 3 261 1.6 0.0 0.00 0.00 0.00 66 1001.1
20260505230844 3 243 3.2 0.0 0.00 0.00 0.00 66 1001.1
20260505230339 3 259 4.8 0.0 0.00 0.00 0.00 66 1001.1
20260505225833 3 258 4.8 0.0 0.00 0.00 0.00 66 1001.1
20260505225346 3 282 1.6 0.0 0.00 0.00 0.00 67 1001.1
20260505224840 2 303 1.6 0.0 0.00 0.00 0.00 69 1001.1
20260505224333 2 265 1.6 0.0 0.00 0.00 0.00 69 1001.1
20260505223829 2 238 1.6 0.0 0.00 0.00 0.00 70 1001.1
20260505223355 2 250 1.6 0.0 0.00 0.00 0.00 71 1001.1
20260505222845 2 238 1.6 0.0 0.00 0.00 0.00 72 1001.1
20260505222336 2 276 1.6 0.0 0.00 0.00 0.00 73 1001.1
20260505221847 2 259 0.0 0.0 0.00 0.00 0.00 75 1001.1
20260505221344 1 227 0.0 0.0 0.00 0.00 0.00 75 1001.1
20260505220840 1 227 0.0 0.0 0.00 0.00 0.00 76 1001.1
20260505220335 1 226 0.0 0.0 0.00 0.00 0.00 76 1001.1
20260505215829 1 206 0.0 0.0 0.00 0.00 0.00 77 1001.0
20260505215342 1 220 1.6 0.0 0.00 0.00 0.00 78 1001.0
20260505214839 1 214 0.0 0.0 0.00 0.00 0.00 78 1001.0
20260505214332 1 199 0.0 0.0 0.00 0.00 0.00 79 1000.9
20260505213855 1 199 0.0 0.0 0.00 0.00 0.00 80 1000.9
20260505213350 2 199 0.0 0.0 0.00 0.00 0.00 80 1000.9
20260505212840 2 199 1.6 0.0 0.00 0.00 0.00 80 1000.8
20260505212335 2 199 1.6 0.0 0.00 0.00 0.00 81 1000.8
20260505211847 2 197 1.6 0.0 0.00 0.00 0.00 82 1000.8
20260505211340 2 196 1.6 0.0 0.00 0.00 0.00 82 1000.7
20260505210832 2 192 1.6 0.0 0.00 0.00 0.00 82 1000.7
20260505210347 2 206 1.6 0.0 0.00 0.00 0.00 82 1000.7
20260505205837 2 199 1.6 0.0 0.00 0.00 0.05 82 1000.6
20260505205330 2 196 1.6 0.0 0.00 0.00 0.05 81 1000.6
20260505204853 2 196 1.6 0.0 0.00 0.00 0.05 80 1000.6
20260505204342 2 200 1.6 0.0 0.00 0.00 0.05 78 1000.5
20260505203834 3 204 1.6 0.0 0.00 0.00 0.05 77 1000.6
20260505203333 3 200 1.6 0.0 0.00 0.00 0.05 77 1000.6
20260505202843 3 219 1.6 0.0 0.00 0.00 0.05 77 1000.5
20260505202336 3 219 1.6 0.0 0.00 0.00 0.05 75 1000.5
20260505201848 3 213 1.6 0.0 0.00 0.00 0.05 74 1000.5
20260505201341 3 210 1.6 0.0 0.00 0.00 0.05 73 1000.4
20260505200834 3 216 0.0 0.0 0.00 0.00 0.05 71 1000.4
20260505200330 3 211 0.0 0.0 0.00 0.00 0.05 68 1000.4
20260505195856 4 207 1.6 0.0 0.00 0.00 0.05 66 1000.4
20260505195344 4 227 1.6 0.0 0.00 0.00 0.05 65 1000.4
20260505194836 5 230 1.6 0.0 0.00 0.00 0.05 63 1000.4
20260505194329 5 248 3.2 0.0 0.00 0.00 0.05 62 1000.4
20260505193841 5 251 3.2 0.0 0.00 0.00 0.05 61 1000.4
20260505193336 5 279 3.2 0.0 0.00 0.00 0.05 59 1000.4
20260505192847 5 250 3.2 0.0 0.00 0.00 0.05 57 1000.2
20260505192340 5 247 4.8 0.0 0.00 0.00 0.05 56 1000.2
20260505191832 5 247 4.8 0.0 0.00 0.00 0.05 55 1000.2
20260505191356 5 227 4.8 0.0 0.00 0.00 0.05 55 1000.2
20260505190831 6 268 4.8 0.0 0.00 0.00 0.05 54 1000.2
20260505190344 6 271 6.4 0.0 0.00 0.00 0.05 54 1000.2
20260505185830 6 255 8.0 0.0 0.00 0.00 0.05 53 1000.1
20260505185343 6 279 8.0 0.0 0.00 0.00 0.05 53 1000.1
20260505184834 6 230 8.0 0.0 0.00 0.00 0.05 53 1000.1
20260505184359 6 259 6.4 0.0 0.00 0.00 0.05 52 999.8
20260505183858 6 261 6.4 0.0 0.00 0.00 0.05 52 999.8
20260505183352 6 298 6.4 0.0 0.00 0.00 0.05 51 999.8
20260505182841 6 248 6.4 0.0 0.00 0.00 0.05 51 999.6
20260505182331 7 227 4.8 0.0 0.00 0.00 0.05 50 999.6
20260505181846 7 227 4.8 0.0 0.00 0.00 0.05 50 999.6
20260505181336 7 255 4.8 0.0 0.00 0.00 0.05 49 999.6
20260505180842 7 202 4.8 0.0 0.00 0.00 0.05 50 999.6
20260505175857 7 261 6.4 0.0 0.00 0.00 0.05 50 999.4
20260505175352 7 248 4.8 0.0 0.00 0.00 0.05 50 999.4
20260505174843 7 240 4.8 0.0 0.00 0.00 0.05 50 999.4
20260505174336 7 247 8.0 0.0 0.00 0.00 0.05 50 999.4
20260505173848 7 268 9.7 0.0 0.00 0.00 0.05 50 999.4
20260505173342 7 303 9.7 0.0 0.00 0.00 0.05 51 999.4
20260505172832 7 250 9.7 0.0 0.00 0.00 0.05 51 999.2
20260505172344 7 265 8.0 0.0 0.00 0.00 0.05 51 999.2
20260505171835 7 255 8.0 0.0 0.00 0.00 0.05 51 999.2
20260505171330 7 244 6.4 0.0 0.00 0.00 0.05 51 999.1
20260505170852 7 234 8.0 0.0 0.00 0.00 0.05 52 999.1
20260505170347 7 259 9.7 0.0 0.00 0.00 0.05 52 999.1
20260505165836 7 211 9.7 0.0 0.00 0.00 0.05 52 999.1
20260505165329 7 262 9.7 0.0 0.00 0.00 0.05 51 999.1
20260505164841 8 223 8.0 0.0 0.00 0.00 0.05 49 999.1
20260505164337 8 195 8.0 0.0 0.00 0.00 0.05 49 999.1
20260505163832 8 255 8.0 0.0 0.00 0.00 0.05 49 999.1
20260505163343 8 200 11.3 0.0 0.00 0.00 0.05 49 999.1
20260505162834 8 245 11.3 0.0 0.00 0.00 0.05 49 999.0
20260505162357 8 224 9.7 0.0 0.00 0.00 0.05 52 999.0
20260505161849 8 233 11.3 0.0 0.00 0.00 0.05 50 999.0
20260505161342 8 293 9.7 0.0 0.00 0.00 0.05 54 999.0
20260505160833 8 241 9.7 0.0 0.00 0.00 0.05 53 999.0
20260505160349 8 206 11.3 0.0 0.00 0.00 0.05 53 999.0